Time,TemperatureF,DewpointF,PressureIn,WindDirection,WindDirectionDegrees,WindSpeedMPH,WindSpeedGustMPH,Humidity,HourlyPrecipIn,Conditions,Clouds,dailyrainin,SoftwareType,DateUTC
2013-01-31 00:12:00,19.0,13.0,29.71,WSW,252,20.0,26.0,76,0.00,,,0.14,weatherlink.com 1.10,2013-01-31 06:12:00,
2013-01-31 00:27:00,18.9,13.0,29.72,West,277,16.0,28.0,77,0.00,,,0.14,weatherlink.com 1.10,2013-01-31 06:27:00,
2013-01-31 00:42:00,18.3,12.0,29.73,West,281,21.0,31.0,77,0.00,,,0.14,weatherlink.com 1.10,2013-01-31 06:42:00,
2013-01-31 00:57:00,18.3,13.0,29.73,West,260,17.0,30.0,78,0.00,,,0.14,weatherlink.com 1.10,2013-01-31 06:57:00,
2013-01-31 01:12:00,18.4,13.0,29.73,West,264,14.0,27.0,78,0.00,,,0.14,weatherlink.com 1.10,2013-01-31 07:12:00,
2013-01-31 01:27:00,18.7,13.0,29.73,West,275,18.0,24.0,77,0.00,,,0.14,weatherlink.com 1.10,2013-01-31 07:27:00,
2013-01-31 01:42:00,19.0,13.0,29.74,WNW,290,7.0,22.0,78,0.00,,,0.00,weatherlink.com 1.10,2013-01-31 07:42:00,
2013-01-31 01:57:00,19.4,14.0,29.74,WSW,252,14.0,22.0,78,0.00,,,0.00,weatherlink.com 1.10,2013-01-31 07:57:00,
2013-01-31 02:12:00,19.8,14.0,29.75,West,265,11.0,20.0,79,0.00,,,0.00,weatherlink.com 1.10,2013-01-31 08:12:00,
2013-01-31 02:27:00,20.2,15.0,29.75,West,271,14.0,20.0,79,0.00,,,0.00,weatherlink.com 1.10,2013-01-31 08:27:00,
2013-01-31 02:42:00,20.7,15.0,29.75,West,259,12.0,21.0,80,0.00,,,0.00,weatherlink.com 1.10,2013-01-31 08:42:00,
2013-01-31 02:57:00,21.2,16.0,29.75,West,263,12.0,22.0,80,0.00,,,0.00,weatherlink.com 1.10,2013-01-31 08:57:00,
2013-01-31 03:12:00,21.7,16.0,29.75,WSW,248,15.0,31.0,80,0.00,,,0.00,weatherlink.com 1.10,2013-01-31 09:12:00,
2013-01-31 03:27:00,22.1,17.0,29.75,WSW,242,13.0,21.0,82,0.00,,,0.00,weatherlink.com 1.10,2013-01-31 09:27:00,
2013-01-31 03:42:00,22.1,17.0,29.75,West,263,17.0,27.0,81,0.00,,,0.00,weatherlink.com 1.10,2013-01-31 09:42:00,
2013-01-31 03:58:00,22.2,18.0,29.75,West,275,16.0,23.0,83,0.00,,,0.00,weatherlink.com 1.10,2013-01-31 09:58:00,
2013-01-31 04:13:00,22.2,18.0,29.74,West,261,11.0,21.0,83,0.00,,,0.00,weatherlink.com 1.10,2013-01-31 10:13:00,
2013-01-31 04:28:00,22.6,18.0,29.74,WSW,247,18.0,23.0,82,0.00,,,0.00,weatherlink.com 1.10,2013-01-31 10:28:00,
2013-01-31 04:43:00,22.0,19.0,29.75,West,269,6.0,21.0,86,0.00,,,0.00,weatherlink.com 1.10,2013-01-31 10:43:00,
2013-01-31 04:58:00,21.8,18.0,29.75,WNW,282,8.0,26.0,86,0.00,,,0.00,weatherlink.com 1.10,2013-01-31 10:58:00,
2013-01-31 05:13:00,21.7,17.0,29.75,West,276,9.0,26.0,83,0.00,,,0.00,weatherlink.com 1.10,2013-01-31 11:13:00,
2013-01-31 05:28:00,21.3,17.0,29.76,WNW,283,5.0,22.0,82,0.00,,,0.00,weatherlink.com 1.10,2013-01-31 11:28:00,
2013-01-31 05:43:00,20.8,16.0,29.76,WSW,257,17.0,26.0,80,0.00,,,0.00,weatherlink.com 1.10,2013-01-31 11:43:00,
2013-01-31 05:58:00,20.0,15.0,29.77,West,265,13.0,31.0,80,0.00,,,0.00,weatherlink.com 1.10,2013-01-31 11:58:00,
2013-01-31 06:13:00,19.4,14.0,29.78,West,281,20.0,26.0,78,0.00,,,0.00,weatherlink.com 1.10,2013-01-31 12:13:00,
2013-01-31 06:28:00,18.8,14.0,29.79,West,273,11.0,25.0,80,0.00,,,0.00,weatherlink.com 1.10,2013-01-31 12:28:00,
2013-01-31 06:43:00,17.7,10.0,29.80,WNW,291,12.0,26.0,73,0.00,,,0.00,weatherlink.com 1.10,2013-01-31 12:43:00,
2013-01-31 06:58:00,16.8,10.0,29.82,West,261,18.0,27.0,73,0.00,,,0.00,weatherlink.com 1.10,2013-01-31 12:58:00,
2013-01-31 07:13:00,16.3,9.0,29.82,West,275,14.0,28.0,74,0.00,,,0.00,weatherlink.com 1.10,2013-01-31 13:13:00,
2013-01-31 07:28:00,15.9,8.0,29.83,West,279,21.0,29.0,72,0.00,,,0.00,weatherlink.com 1.10,2013-01-31 13:28:00,
2013-01-31 07:43:00,15.7,9.0,29.83,WNW,288,8.0,24.0,74,0.00,,,0.00,weatherlink.com 1.10,2013-01-31 13:43:00,
2013-01-31 07:58:00,15.7,9.0,29.84,WSW,250,10.0,19.0,75,0.00,,,0.00,weatherlink.com 1.10,2013-01-31 13:58:00,
2013-01-31 08:13:00,15.5,9.0,29.84,West,261,12.0,18.0,75,0.00,,,0.00,weatherlink.com 1.10,2013-01-31 14:13:00,
2013-01-31 08:28:00,15.6,9.0,29.85,West,274,15.0,21.0,75,0.00,,,0.00,weatherlink.com 1.10,2013-01-31 14:28:00,
2013-01-31 08:43:00,15.7,9.0,29.86,West,279,14.0,22.0,76,0.00,,,0.00,weatherlink.com 1.10,2013-01-31 14:43:00,
2013-01-31 08:58:00,15.5,10.0,29.86,West,281,11.0,19.0,77,0.00,,,0.00,weatherlink.com 1.10,2013-01-31 14:58:00,
2013-01-31 09:13:00,15.7,9.0,29.86,West,276,13.0,17.0,76,0.00,,,0.00,weatherlink.com 1.10,2013-01-31 15:13:00,
2013-01-31 09:28:00,16.1,10.0,29.87,West,267,13.0,16.0,77,0.00,,,0.00,weatherlink.com 1.10,2013-01-31 15:28:00,
2013-01-31 09:43:00,16.2,10.0,29.88,West,275,12.0,24.0,75,0.00,,,0.00,weatherlink.com 1.10,2013-01-31 15:43:00,
2013-01-31 09:58:00,16.6,10.0,29.88,WSW,254,23.0,24.0,76,0.00,,,0.00,weatherlink.com 1.10,2013-01-31 15:58:00,
2013-01-31 10:13:00,16.1,10.0,29.89,West,275,17.0,28.0,75,0.00,,,0.00,weatherlink.com 1.10,2013-01-31 16:13:00,
2013-01-31 10:28:00,15.7,9.0,29.90,WSW,257,10.0,25.0,75,0.00,,,0.00,weatherlink.com 1.10,2013-01-31 16:28:00,
2013-01-31 10:44:00,15.2,10.0,29.90,West,271,10.0,21.0,79,0.00,,,0.00,weatherlink.com 1.10,2013-01-31 16:44:00,
2013-01-31 10:59:00,15.0,8.0,29.91,West,267,5.0,22.0,74,0.00,,,0.00,weatherlink.com 1.10,2013-01-31 16:59:00,
2013-01-31 11:14:00,14.8,8.0,29.92,West,259,11.0,23.0,74,0.00,,,0.00,weatherlink.com 1.10,2013-01-31 17:14:00,
2013-01-31 11:29:00,14.5,9.0,29.92,West,281,10.0,20.0,79,0.00,,,0.00,weatherlink.com 1.10,2013-01-31 17:29:00,
2013-01-31 11:44:00,14.8,8.0,29.92,West,271,18.0,28.0,73,0.00,,,0.00,weatherlink.com 1.10,2013-01-31 17:44:00,
2013-01-31 11:59:00,15.0,8.0,29.92,West,275,24.0,27.0,72,0.00,,,0.00,weatherlink.com 1.10,2013-01-31 17:59:00,
2013-01-31 12:14:00,15.3,7.0,29.92,West,275,12.0,25.0,69,0.00,,,0.00,weatherlink.com 1.10,2013-01-31 18:14:00,
2013-01-31 12:29:00,15.6,7.0,29.92,West,279,22.0,24.0,68,0.00,,,0.00,weatherlink.com 1.10,2013-01-31 18:29:00,
2013-01-31 12:44:00,15.4,7.0,29.92,WSW,258,18.0,24.0,69,0.00,,,0.00,weatherlink.com 1.10,2013-01-31 18:44:00,
2013-01-31 12:59:00,15.3,7.0,29.93,West,265,19.0,26.0,69,0.00,,,0.00,weatherlink.com 1.10,2013-01-31 18:59:00,
2013-01-31 13:14:00,15.4,8.0,29.93,WSW,255,18.0,23.0,73,0.00,,,0.00,weatherlink.com 1.10,2013-01-31 19:14:00,
2013-01-31 13:29:00,14.7,6.0,29.93,West,275,13.0,23.0,69,0.00,,,0.00,weatherlink.com 1.10,2013-01-31 19:29:00,
2013-01-31 13:44:00,14.3,6.0,29.93,West,263,17.0,28.0,68,0.00,,,0.00,weatherlink.com 1.10,2013-01-31 19:44:00,
2013-01-31 13:59:00,14.1,6.0,29.94,West,263,15.0,23.0,71,0.00,,,0.00,weatherlink.com 1.10,2013-01-31 19:59:00,
2013-01-31 14:15:00,13.8,7.0,29.95,West,259,8.0,23.0,75,0.00,,,0.00,weatherlink.com 1.10,2013-01-31 20:15:00,
2013-01-31 14:30:00,14.1,6.0,29.95,NW,309,12.0,20.0,71,0.00,,,0.00,weatherlink.com 1.10,2013-01-31 20:30:00,
2013-01-31 14:45:00,13.9,5.0,29.96,West,274,19.0,25.0,69,0.00,,,0.00,weatherlink.com 1.10,2013-01-31 20:45:00,
2013-01-31 15:00:00,13.7,5.0,29.97,WNW,292,13.0,27.0,69,0.00,,,0.00,weatherlink.com 1.10,2013-01-31 21:00:00,
2013-01-31 15:15:00,13.4,4.0,29.98,WNW,290,15.0,29.0,66,0.00,,,0.00,weatherlink.com 1.10,2013-01-31 21:15:00,
2013-01-31 15:30:00,13.5,5.0,29.99,West,280,18.0,27.0,69,0.00,,,0.00,weatherlink.com 1.10,2013-01-31 21:30:00,
2013-01-31 15:45:00,12.9,5.0,29.99,West,273,15.0,31.0,69,0.00,,,0.00,weatherlink.com 1.10,2013-01-31 21:45:00,
2013-01-31 16:00:00,12.7,6.0,30.00,WNW,283,10.0,28.0,73,0.00,,,0.00,weatherlink.com 1.10,2013-01-31 22:00:00,
2013-01-31 16:15:00,12.6,4.0,30.01,West,262,12.0,27.0,68,0.00,,,0.00,weatherlink.com 1.10,2013-01-31 22:15:00,
2013-01-31 16:30:00,12.2,4.0,30.02,WNW,298,25.0,32.0,69,0.00,,,0.00,weatherlink.com 1.10,2013-01-31 22:30:00,
2013-01-31 16:45:00,11.8,3.0,30.03,West,259,25.0,33.0,69,0.00,,,0.00,weatherlink.com 1.10,2013-01-31 22:45:00,
2013-01-31 17:00:00,11.4,4.0,30.04,West,267,9.0,27.0,72,0.00,,,0.00,weatherlink.com 1.10,2013-01-31 23:00:00,
2013-01-31 17:15:00,10.9,4.0,30.05,West,279,11.0,26.0,73,0.00,,,0.00,weatherlink.com 1.10,2013-01-31 23:15:00,
2013-01-31 17:31:00,10.5,4.0,30.05,WNW,287,14.0,26.0,74,0.00,,,0.00,weatherlink.com 1.10,2013-01-31 23:31:00,
2013-01-31 17:46:00,10.1,2.0,30.07,WSW,246,17.0,28.0,71,0.00,,,0.00,weatherlink.com 1.10,2013-01-31 23:46:00,
2013-01-31 18:01:00,9.8,2.0,30.07,WSW,242,14.0,32.0,71,0.00,,,0.00,weatherlink.com 1.10,2013-02-01 00:01:00,
2013-01-31 18:16:00,9.5,0.0,30.08,WNW,286,19.0,32.0,66,0.00,,,0.00,weatherlink.com 1.10,2013-02-01 00:16:00,
2013-01-31 18:31:00,9.3,0.0,30.09,West,270,13.0,29.0,67,0.00,,,0.00,weatherlink.com 1.10,2013-02-01 00:31:00,
2013-01-31 18:46:00,9.1,2.0,30.10,West,259,8.0,26.0,72,0.00,,,0.00,weatherlink.com 1.10,2013-02-01 00:46:00,
2013-01-31 19:01:00,8.9,1.0,30.11,WNW,288,17.0,28.0,70,0.00,,,0.00,weatherlink.com 1.10,2013-02-01 01:01:00,
2013-01-31 19:16:00,8.5,1.0,30.11,WNW,290,11.0,30.0,71,0.00,,,0.00,weatherlink.com 1.10,2013-02-01 01:16:00,
2013-01-31 19:46:00,8.3,0.0,30.12,WNW,290,18.0,28.0,69,0.00,,,0.00,weatherlink.com 1.10,2013-02-01 01:46:00,
2013-01-31 20:01:00,8.0,-1.0,30.13,WNW,296,14.0,31.0,68,0.00,,,0.00,weatherlink.com 1.10,2013-02-01 02:01:00,
2013-01-31 20:16:00,7.9,1.0,30.13,West,267,29.0,29.0,73,0.00,,,0.00,weatherlink.com 1.10,2013-02-01 02:16:00,
2013-01-31 20:31:00,7.7,2.0,30.15,WNW,285,11.0,23.0,77,0.00,,,0.00,weatherlink.com 1.10,2013-02-01 02:31:00,
2013-01-31 20:46:00,7.6,1.0,30.15,WNW,292,8.0,27.0,74,0.00,,,0.00,weatherlink.com 1.10,2013-02-01 02:46:00,
2013-01-31 21:02:00,7.3,0.0,30.16,WSW,254,23.0,32.0,71,0.00,,,0.00,weatherlink.com 1.10,2013-02-01 03:02:00,
2013-01-31 21:17:00,7.0,0.0,30.17,West,268,23.0,29.0,73,0.00,,,0.00,weatherlink.com 1.10,2013-02-01 03:17:00,
2013-01-31 21:32:00,6.8,1.0,30.18,WNW,288,17.0,22.0,77,0.00,,,0.00,weatherlink.com 1.10,2013-02-01 03:32:00,
2013-01-31 21:47:00,6.8,0.0,30.18,West,273,16.0,28.0,74,0.00,,,0.00,weatherlink.com 1.10,2013-02-01 03:47:00,
2013-01-31 22:02:00,6.7,1.0,30.19,West,281,8.0,24.0,77,0.00,,,0.00,weatherlink.com 1.10,2013-02-01 04:02:00,
2013-01-31 22:17:00,6.5,0.0,30.20,NW,306,11.0,28.0,74,0.00,,,0.00,weatherlink.com 1.10,2013-02-01 04:17:00,
2013-01-31 22:32:00,6.0,-2.0,30.20,WNW,286,17.0,29.0,70,0.00,,,0.00,weatherlink.com 1.10,2013-02-01 04:32:00,
2013-01-31 22:47:00,5.6,-3.0,30.21,NW,326,16.0,26.0,69,0.00,,,0.00,weatherlink.com 1.10,2013-02-01 04:47:00,
2013-01-31 23:17:00,5.3,-2.0,30.23,West,279,14.0,23.0,72,0.00,,,0.00,weatherlink.com 1.10,2013-02-01 05:17:00,
2013-01-31 23:32:00,5.1,-2.0,30.23,WNW,282,6.0,24.0,71,0.00,,,0.00,weatherlink.com 1.10,2013-02-01 05:32:00,
2013-01-31 23:47:00,5.0,-3.0,30.24,WNW,288,19.0,24.0,70,0.00,,,0.00,weatherlink.com 1.10,2013-02-01 05:47:00,